Notices

What's New in latest Release from April 7th, 2021:

- Updated Glossary, including Speed of Maximum Gust, and Total Hourly Precipitation

- Updated national and regional climate services offices contacts and prices information

- Addition of station inventory lists for 1981-2010, 1971-2000, and 1961-1990 Normals.

If you haven't already, please take our survey and provide feedback about our website: https://eccc.sondage-survey.ca/f/LanguageSelection.aspx?s=442ca660-fcf1-47c0-95a9-59707d6fd709

Hourly Data Report for March 20, 2004

SHERBROOKE A
QUEBEC

45°26'00.000" N
71°41'00.000" W
241.40 m
7028124
71610
YSC

Download Data

Hourly Data (March 2004)
Hourly Data Report for March 20, 2004
TIME
LST
Temp Definition
°C
Dew Point Definition
°C
Rel Hum Definition
%
Precip. Amount Definition
mm

Wind Dir Definition
10's deg

Wind Spd Definition
km/h
Visibility Definition
km
Stn Press Definition
kPa
Hmdx Definition


Wind Chill Definition


Weather Definition


00:00 -10.3 -11.4 92     0 9.7 100.05      
01:00 -11.7 -12.6 93   9 6 8.0 100.08   -15  
02:00 -12.5 -13.4 93   9 6 9.7 100.04   -16  
03:00 -12.8 -13.6 94   8 4 9.7 99.99   -15  
04:00 -12.4 -13.4 92   9 7 11.3 99.97   -17  
05:00 -12.8 -14.0 91   9 7 15.0 99.92   -17  
06:00 -12.2 -13.4 91   12 6 15.0 99.90   -16  
07:00 -11.6 -12.7 92     0 12.9 99.82      
08:00 -9.2 -10.8 88   9 4 24.1 99.67   -11 Cloudy
09:00 -5.9 -9.1 78   7 6 24.1 99.54   -9 Cloudy
10:00 -1.3 -7.1 65     0 24.1 99.41     Cloudy
11:00 -0.2 -9.5 49   18 13 24.1 99.18   -4 Cloudy
12:00 0.8 -9.7 45   20 20 24.1 99.11     Cloudy
13:00 0.8 -10.2 44   21 20 19.3 98.93     Snow
14:00 0.5 -8.7 50   20 11 24.1 98.73     Cloudy
15:00 1.4 -8.8 47   16 11 24.1 98.45     Ice Pellets
16:00 1.9 -7.3 50   18 13 24.1 98.35     Cloudy
17:00 -0.8 -1.8 93   20 15 1.2 98.30   -5 Snow
18:00 -0.9 -1.5 96   17 11 1.0 98.11   -5 Snow
19:00 -0.8 -1.2 97   18 11 1.8 98.03   -5 Snow
20:00 -0.7 -1.4 95   16 6 2.4 97.94   -3 Snow
21:00 -0.8 -1.7 94   14 7 4.8 97.81   -3 Snow
22:00 -0.6 -2.0 90   16 7 15.0 97.66   -3 Snow
23:00 -0.6 -1.9 91   17 11 8.0 97.56   -4 Snow

Notes on Data Quality.

Legend

  • E = Estimated
  • M = Missing
  • NA = Not Available*
  • [empty] = Indicates an unobserved value
Date modified: